Location: ČR
(50.0000°N, 15.0000°E)
Time: 18:44:53
(UTC+01:00)

Altair - Visible Passes

Search period start: 10 February 2026 00:00
Search period end: 20 February 2026 00:00
Orbit: 1502 x 1682 km, 47.2° (Epoch: 10 February)

Date Brightness Start Highest point End Pass type
(mag) Time Alt. Az. Time Alt. Az. Time Alt. Az.
10 Feb 9.3 05:21:41 10° S 05:28:47 25° SE 05:36:02 10° E visible
11 Feb 9.3 04:56:56 10° S 05:03:42 23° SE 05:10:37 10° E visible
12 Feb 9.3 04:32:14 10° S 04:38:39 21° SE 04:45:10 10° E visible
12 Feb 8.3 06:32:45 10° SW 06:41:39 53° SSE 06:50:52 10° E visible
13 Feb 9.3 04:07:36 10° S 04:13:35 19° SE 04:19:40 10° E visible
13 Feb 8.3 06:07:41 10° SW 06:16:29 50° SSE 06:25:36 10° E visible
14 Feb 9.4 03:43:01 10° SSE 03:48:32 18° SE 03:54:07 10° E visible
14 Feb 8.3 05:42:38 10° SW 05:51:20 48° SSE 06:00:19 10° E visible
15 Feb 9.4 03:18:34 10° SSE 03:23:30 16° SE 03:28:29 10° E visible
15 Feb 8.3 05:17:36 10° SW 05:26:11 45° SSE 05:35:03 10° E visible
16 Feb 9.3 02:55:13 12° SSE 02:58:28 14° SE 03:02:44 10° E visible
16 Feb 8.3 04:53:17 13° SSW 05:01:03 43° SE 05:09:45 10° E visible
17 Feb 9.4 02:31:48 12° SE 02:33:26 12° ESE 02:36:48 10° ESE visible
17 Feb 8.3 04:29:51 19° SSW 04:35:56 40° SE 04:44:28 10° E visible
17 Feb 7.8 06:30:32 10° WSW 06:39:44 71° SSE 06:49:17 10° E visible
18 Feb 9.5 02:08:16 11° ESE 02:08:25 11° ESE 02:10:23 10° ESE visible
18 Feb 8.4 04:06:18 24° S 04:10:49 38° SE 04:19:10 10° E visible
18 Feb 7.8 06:05:22 10° WSW 06:14:32 69° SSE 06:24:01 10° E visible
19 Feb 8.4 03:42:41 29° S 03:45:42 35° SE 03:53:52 10° E visible
19 Feb 7.7 05:40:42 12° WSW 05:49:20 68° SSE 05:58:45 10° E visible
